Location: Friaudour
(46.0460°N, 1.2873°E)
Time: 03:31:38
(UTC+00:00)

Cosmos 1975 Rocket - Pass Details

Date: 14 July 2020
Orbit: 604 x 633 km, 82.5° (Epoch: 06 August)

Event Time Altitude Azimuth Distance (km) Brightness Sun altitude
Rises 03:32:40 0° 350° (N) 2,908 7.0 -7.1°
Reaches altitude 10° 03:34:53 10° 349° (N) 2,001 6.1 -6.8°
Maximum altitude 03:39:20 80° 263° (W) 641 3.1 -6.2°
Drops below altitude 10° 03:43:46 10° 177° (S) 2,001 5.3 -5.6°
Sets 03:46:00 0° 176° (S) 2,907 6.2 -5.3°
